TimeCST,TemperatureF,Dew PointF,Humidity,Sea Level PressureIn,VisibilityMPH,Wind Direction,Wind SpeedMPH,Gust SpeedMPH,PrecipitationIn,Events,Conditions,WindDirDegrees,DateUTC
12:50 AM,5.0,-2.2,72,29.87,6.0,NW,31.1,41.4,0.00,,Overcast,310,2013-02-19 06:50:00
12:53 AM,5.0,-2.9,70,29.92,5.0,NW,26.5,41.4,0.00,,Overcast,310,2013-02-19 06:53:00
1:02 AM,5.0,-2.2,72,29.88,2.5,NW,28.8,34.5,0.00,Snow,Light Snow,310,2013-02-19 07:02:00
1:16 AM,3.2,-2.2,78,29.88,4.0,NW,24.2,35.7,0.00,,Overcast,310,2013-02-19 07:16:00
1:53 AM,3.0,-4.0,73,29.95,6.0,NW,25.3,33.4,0.00,,Overcast,310,2013-02-19 07:53:00
2:02 AM,3.2,-4.0,72,29.89,7.0,WNW,27.6,38.0,0.00,,Overcast,300,2013-02-19 08:02:00
2:35 AM,1.4,-5.8,72,29.90,9.0,WNW,26.5,36.8,0.00,,Scattered Clouds,300,2013-02-19 08:35:00
2:43 AM,1.4,-5.8,72,29.91,7.0,WNW,28.8,34.5,0.00,,Mostly Cloudy,300,2013-02-19 08:43:00
2:53 AM,1.0,-6.0,72,29.97,4.0,WNW,28.8,36.8,0.00,,Haze,300,2013-02-19 08:53:00
3:53 AM,1.0,-7.1,69,30.00,8.0,NW,28.8,38.0,N/A,,Overcast,310,2013-02-19 09:53:00
4:53 AM,-0.0,-7.1,72,30.02,8.0,WNW,28.8,40.3,N/A,,Mostly Cloudy,300,2013-02-19 10:53:00
5:27 AM,-0.4,-7.6,72,29.97,10.0,NW,28.8,36.8,N/A,,Mostly Cloudy,310,2013-02-19 11:27:00
5:53 AM,-0.0,-8.0,69,30.05,8.0,NW,25.3,34.5,N/A,,Mostly Cloudy,310,2013-02-19 11:53:00
6:53 AM,-0.0,-8.0,69,30.07,9.0,NW,29.9,40.3,N/A,,Overcast,310,2013-02-19 12:53:00
7:23 AM,-0.4,-9.4,66,30.02,10.0,NW,26.5,38.0,N/A,,Partly Cloudy,310,2013-02-19 13:23:00
7:53 AM,-0.0,-9.0,66,30.10,10.0,NW,25.3,42.6,N/A,,Partly Cloudy,320,2013-02-19 13:53:00
8:19 AM,1.4,-7.6,66,30.04,10.0,NW,27.6,39.1,N/A,,Mostly Cloudy,320,2013-02-19 14:19:00
8:53 AM,1.9,-8.0,63,30.14,10.0,NW,32.2,40.3,N/A,,Mostly Cloudy,310,2013-02-19 14:53:00
9:39 AM,3.2,-7.6,61,30.08,10.0,NW,31.1,39.1,N/A,,Scattered Clouds,320,2013-02-19 15:39:00
9:50 AM,3.2,-5.8,66,30.09,8.0,NW,28.8,36.8,N/A,,Mostly Cloudy,310,2013-02-19 15:50:00
9:53 AM,3.9,-6.0,64,30.16,7.0,NW,28.8,35.7,N/A,,Mostly Cloudy,310,2013-02-19 15:53:00
10:53 AM,3.9,-7.1,60,30.17,7.0,WNW,31.1,40.3,N/A,,Mostly Cloudy,300,2013-02-19 16:53:00
12:53 PM,8.1,-4.0,58,30.20,10.0,NW,27.6,38.0,N/A,,Partly Cloudy,310,2013-02-19 18:53:00
1:53 PM,10.9,-2.9,54,30.21,10.0,WNW,27.6,34.5,N/A,,Clear,300,2013-02-19 19:53:00
2:53 PM,12.0,-2.0,53,30.22,10.0,NW,24.2,33.4,N/A,,Clear,310,2013-02-19 20:53:00
3:53 PM,10.9,-2.0,56,30.25,10.0,WNW,24.2,31.1,N/A,,Clear,300,2013-02-19 21:53:00
4:53 PM,8.1,-2.9,61,30.27,10.0,WNW,21.9,29.9,N/A,,Clear,300,2013-02-19 22:53:00
6:53 PM,1.0,-7.1,69,30.33,10.0,NW,16.1,-,N/A,,Clear,320,2013-02-20 00:53:00
7:53 PM,-0.9,-9.0,69,30.36,10.0,NW,19.6,-,N/A,,Clear,320,2013-02-20 01:53:00
8:53 PM,-2.0,-9.9,69,30.38,10.0,NW,20.7,-,N/A,,Clear,320,2013-02-20 02:53:00
9:53 PM,-2.0,-9.9,69,30.40,10.0,NNW,16.1,-,N/A,,Clear,330,2013-02-20 03:53:00
10:53 PM,-2.9,-9.9,72,30.40,10.0,NNW,13.8,-,N/A,,Clear,330,2013-02-20 04:53:00
11:53 PM,-2.9,-9.9,72,30.42,10.0,NW,10.4,-,N/A,,Clear,320,2013-02-20 05:53:00